Regional Weather Roundup
Issued by NWS

Home | Current Version | Previous Version | Graphics & Text | Print | Product List | Glossary On
Versions: 1 2 3 4 5 6 7 8 9 10 11 12 13 14 15 16 17 18 19 20 21 22 23 24 25 26 27 28 29 30 31 32 33 34 35 36 37 38 39 40 41 42 43 44 45 46 47 48 49 50
000
ASUS43 KFSD 230210
RWRSD

WEATHER ROUNDUP FOR SOUTH DAKOTA
NATIONAL WEATHER SERVICE SIOUX FALLS SD
900 PM CDT TUE JUL 22 2014

NOTE: "FAIR" INDICATES FEW OR NO CLOUDS BELOW 12,000 FEET WITH NO
SIGNIFICANT WEATHER AND/OR OBSTRUCTIONS TO VISIBILITY.


SDZ001>005-009-010-012>017-230300-
NORTHWEST AND NORTH CENTRAL SOUTH DAKOTA

CITY           SKY/WX    TMP DP  RH WIND       PRES   REMARKS
BUFFALO          N/A     67  63  87 E22       30.18R
FAITH            N/A     74  59  59 NE14      30.28R
MOBRIDGE       FAIR      75  62  64 E7        30.21R
$$

SDZ012>016-024>037-041>051-057-063-072>074-230300-
SOUTHWEST AND SOUTH CENTRAL SOUTH DAKOTA

CITY           SKY/WX    TMP DP  RH WIND       PRES   REMARKS
RAPID CTY ARPT FAIR      72  63  73 SE12      30.18F
PIERRE         FAIR      77  61  57 E7        30.19R
CUSTER         TSTM      60  56  86 E8G32     30.35S FOG
ELLSWORTH AFB  MOCLDY    73  64  73 SE8       30.18F
PHILIP         FAIR      80  61  52 CALM      30.22R
PINE RIDGE     FAIR      78  62  57 E13       30.18S
WINNER         FAIR      78  58  49 E8        30.20R
$$

SDZ004>011-016>023-039-040-230300-
NORTHEAST SOUTH DAKOTA

CITY           SKY/WX    TMP DP  RH WIND       PRES   REMARKS
ABERDEEN       FAIR      71  61  70 E6        30.21R
WATERTOWN      FAIR      68  57  68 NE6       30.23R
SISSETON         N/A     68  62  81 NE6       30.20R
$$

SDZ017-020-022-023-036>040-048>070-230300-
SOUTHEAST SOUTH DAKOTA

CITY           SKY/WX    TMP DP  RH WIND       PRES   REMARKS
SIOUX FALLS    FAIR      70  60  70 NE8       30.19R
HURON          FAIR      73  61  65 NE6       30.19R
CHAMBERLAIN    FAIR      76  59  55 NE7       30.19S
MITCHELL       FAIR      73  63  70 NE3       30.19R
YANKTON        FAIR      75  64  69 N6        30.17R
$$

ABBREVIATIONS USED IN REMARKS
   TC - TEMPERATURE IN CELSIUS
  WCI - WIND CHILL INDEX
   HX - HEAT INDEX
  VSB - VISIBILITY




USA.gov is the U.S. government's official web portal to all federal, state and local government web resources and services.